Lapse_Rate
5.7 5.7 5.5 5.3 5.2 5.0 4.7 4.6 4.3 4.2 4.1 4.0 3.8 3.8 3.9 4.2 4.6 4.8 4.8 4.8 4.8 5.3 5.5 5.7 5.8 5.9 5.8 5.7 5.7 5.6 5.5 5.4 5.5 5.8 5.8 5.9 5.9 5.9 5.8 5.7 5.8 5.9 5.9
5.6 5.4 5.4 5.3 5.2 4.9 4.8 4.6 4.4 4.3 4.0 3.8 3.9 4.0 4.5 4.8 4.7 4.7 4.8 5.3 5.6 5.7 5.8 6.0 6.0 6.0 6.0 6.0 6.1 6.2 6.2 6.1 5.8 5.8 5.9 5.8 5.6 5.7 6.0 6.1 5.7 5.6 5.8
5.6 5.4 5.2 5.1 4.9 4.8 4.7 4.6 4.4 4.1 3.8 3.8 4.3 4.8 4.8 4.7 4.9 5.1 5.5 5.8 5.9 6.1 6.3 6.3 6.3 6.2 6.4 6.5 6.5 6.5 6.5 6.4 6.2 6.0 5.9 5.8 5.8 5.8 5.9 5.8 5.9 6.1 5.9
5.3 5.2 5.0 4.8 4.7 4.6 4.4 4.3 4.1 4.0 4.1 4.5 4.7 4.8 5.0 5.1 5.3 5.5 5.8 6.1 6.4 6.5 6.5 6.3 6.4 6.4 6.5 6.5 6.6 6.5 6.4 6.3 6.2 6.0 5.9 5.8 5.8 5.9 5.9 6.0 6.3 6.1 6.3
4.9 4.8 4.7 4.6 4.5 4.4 4.2 4.0 4.0 4.4 4.6 4.8 5.1 5.5 5.6 5.6 5.6 5.7 6.0 6.2 6.4 6.4 6.3 6.3 6.3 6.4 6.4 6.4 6.4 6.3 6.2 6.2 6.1 6.0 5.9 5.8 5.8 5.9 6.0 6.0 6.1 6.3 6.4
4.9 4.7 4.7 4.5 4.1 3.9 3.8 4.0 4.5 4.9 5.2 5.7 5.9 5.9 5.8 5.9 5.9 5.9 5.9 6.1 6.1 6.2 6.3 6.3 6.2 6.2 6.2 6.1 6.1 5.9 5.8 5.8 5.7 5.7 5.6 5.5 5.5 5.4 5.3 5.4 5.5 5.7 6.1
4.9 4.6 4.2 4.0 4.2 4.2 4.3 4.6 5.0 5.5 5.9 6.2 6.1 6.0 6.1 6.0 6.0 6.0 6.0 6.0 6.0 6.0 6.0 6.1 6.1 6.2 6.1 6.0 5.8 5.7 5.6 5.4 5.3 5.3 5.4 5.3 5.2 5.2 5.1 5.1 5.0 5.0 5.1
4.9 4.6 4.6 4.6 4.5 4.3 4.6 5.1 5.6 6.1 6.2 6.1 5.9 5.9 6.0 6.0 5.9 5.9 5.8 5.9 6.0 6.0 6.0 6.1 6.0 6.0 5.9 5.6 5.4 5.4 5.3 5.3 5.2 5.1 5.1 5.0 5.1 5.1 5.0 4.9 4.8 4.9 4.7
5.0 4.9 4.7 4.6 4.7 4.9 5.3 6.0 6.2 6.1 6.0 6.0 5.9 5.9 5.9 6.2 6.0 5.9 5.8 6.0 6.0 6.0 6.1 6.0 5.9 5.8 5.6 5.3 5.2 5.2 5.2 5.3 5.2 5.2 5.3 5.4 5.5 5.6 5.6 5.3 5.4 5.2 5.0
4.8 4.7 4.7 4.9 5.2 5.7 6.2 6.2 6.1 5.9 5.9 5.9 6.1 6.1 6.1 6.1 6.0 6.0 6.0 6.1 6.1 6.0 5.8 5.7 5.5 5.3 5.3 5.3 5.3 5.3 5.4 5.5 5.5 5.6 5.9 6.3 6.4 6.5 6.4 6.2 5.9 5.8 5.8
4.6 4.5 4.9 5.3 5.7 6.0 6.1 6.0 5.9 5.9 6.0 6.1 6.2 6.3 6.2 6.1 6.1 5.9 5.7 5.5 5.4 5.4 5.4 5.5 5.4 5.5 5.6 5.7 5.8 5.8 5.8 5.9 6.1 6.2 6.5 6.7 6.8 6.7 6.7 6.7 6.5 6.3 6.1
4.6 4.8 5.1 5.6 5.9 6.0 5.9 5.8 5.7 5.8 6.2 6.3 6.5 6.7 6.5 6.2 5.8 5.6 5.2 5.1 5.1 5.2 5.5 5.9 6.3 6.4 6.5 6.5 6.5 6.5 6.6 6.6 6.5 6.5 6.7 6.8 6.8 6.8 6.9 6.9 6.8 6.8 6.9
4.7 5.0 5.4 5.7 5.8 5.7 5.8 5.7 5.8 6.3 6.4 6.5 6.5 6.5 6.6 6.4 6.0 5.5 5.5 5.6 5.5 5.5 6.0 6.6 6.9 6.9 6.8 6.8 6.8 6.8 6.8 6.8 6.8 6.8 6.8 6.9 6.9 6.9 7.0 7.3 7.4 7.1 6.9
4.8 5.1 5.5 5.7 5.9 5.8 5.8 5.8 6.3 6.4 6.5 6.4 6.3 6.4 6.3 6.3 6.1 6.2 5.8 5.5 6.1 6.9 7.3 7.6 7.6 7.5 7.2 7.0 7.0 7.0 6.9 6.9 6.9 7.0 7.0 7.1 7.1 7.2 7.3 7.1 7.0 6.9 6.8
4.9 5.3 5.7 6.0 6.1 6.0 5.9 6.2 6.5 6.5 6.3 6.2 6.0 5.9 5.9 6.4 6.5 6.1 5.9 6.2 6.5 7.0 7.3 7.3 7.2 7.2 7.3 7.3 7.2 7.1 7.0 7.0 7.0 7.1 7.1 7.0 7.1 6.9 7.0 6.9 6.8 6.7 6.8
5.5 5.9 6.1 6.1 6.1 6.0 6.1 6.3 6.5 6.3 6.1 5.8 5.7 6.1 6.6 6.5 6.4 6.4 6.6 6.9 7.3 7.3 7.3 7.1 6.9 6.7 6.7 6.7 6.7 6.7 6.9 7.0 7.0 7.0 7.0 7.0 6.9 6.9 6.8 6.7 6.7 6.7 6.6
5.9 6.2 6.2 6.1 6.0 6.1 6.2 6.2 6.4 6.3 6.0 6.0 6.3 6.6 6.5 6.4 6.4 6.4 6.6 6.8 7.1 7.3 7.2 7.0 6.9 6.8 6.8 6.8 7.0 7.0 7.1 7.0 6.9 6.9 6.8 6.7 6.6 6.6 6.6 6.7 6.7 6.5 6.4
6.2 6.1 6.2 6.2 6.2 6.2 6.1 6.2 6.2 6.1 6.2 6.6 6.8 6.8 6.6 6.5 6.5 6.4 6.3 6.5 6.7 7.0 7.2 7.1 7.1 7.1 7.0 6.9 6.8 6.7 6.8 6.7 6.7 6.6 6.5 6.6 6.6 6.7 6.7 6.6 6.5 6.3 6.2
6.2 6.3 6.2 6.3 6.3 6.2 6.1 6.1 5.9 5.9 6.4 6.8 7.0 6.8 6.7 6.5 6.4 6.3 6.3 6.2 6.4 6.5 6.6 6.7 6.7 6.7 6.6 6.4 6.4 6.4 6.4 6.4 6.4 6.5 6.6 6.7 6.7 6.7 6.6 6.4 6.2 6.1 6.1
6.2 6.1 6.3 6.3 6.3 6.2 6.0 5.8 5.7 6.2 6.7 6.9 6.9 6.7 6.6 6.5 6.4 6.3 6.1 6.0 6.0 6.1 6.1 6.2 6.2 6.1 6.1 6.1 6.2 6.2 6.2 6.3 6.5 6.7 6.7 6.7 6.7 6.6 6.5 6.3 6.2 6.1 6.0
6.1 6.2 6.3 6.3 6.2 6.0 5.9 5.7 5.9 6.4 6.9 6.9 6.7 6.6 6.4 6.4 6.3 6.1 6.0 6.0 6.0 6.0 6.1 6.1 6.1 5.9 5.9 5.9 6.0 6.2 6.4 6.7 6.8 6.8 6.7 6.7 6.6 6.6 6.4 6.3 6.2 6.1 6.0
6.2 6.4 6.4 6.3 6.0 5.9 5.8 5.9 6.2 6.7 6.9 6.8 6.7 6.5 6.4 6.3 6.3 6.4 6.4 6.4 6.5 6.6 6.6 6.5 6.5 6.4 6.3 6.4 6.6 6.7 6.8 6.9 6.9 6.8 6.8 6.8 6.7 6.6 6.6 6.5 6.4 6.2 6.0
6.5 6.4 6.3 6.2 6.0 5.8 6.0 6.2 6.6 6.9 6.8 6.6 6.5 6.4 6.4 6.5 6.5 6.6 6.7 6.9 7.0 7.1 7.1 7.1 7.0 7.0 7.1 7.0 7.1 7.0 6.9 7.0 6.9 6.9 6.8 6.8 6.8 6.7 6.6 6.5 6.5 6.4 6.1
6.4 6.3 6.3 6.1 6.0 6.0 6.3 6.6 6.8 6.8 6.6 6.4 6.3 6.3 6.4 6.6 6.7 6.9 7.1 7.2 7.4 7.4 7.4 7.3 7.2 7.2 7.3 7.2 7.1 7.0 6.9 7.0 7.0 7.0 7.0 6.9 6.9 6.8 6.6 6.5 6.4 6.3 6.2
6.2 6.3 6.2 6.1 6.2 6.4 6.6 6.8 6.8 6.6 6.4 6.2 6.0 6.2 6.4 6.7 6.9 7.0 7.3 7.5 7.6 7.6 7.4 7.2 7.2 7.2 7.2 7.1 7.2 7.2 7.2 7.1 7.0 7.0 6.9 6.8 6.6 6.5 6.4 6.3 6.2 6.3 6.2
6.2 6.2 6.2 6.3 6.5 6.7 6.8 6.8 6.7 6.5 6.2 6.0 5.9 6.2 6.6 6.8 6.9 7.2 7.5 7.6 7.7 7.5 7.3 7.2 7.2 7.2 7.2 7.2 7.2 7.1 7.1 7.0 6.9 6.8 6.6 6.5 6.4 6.3 6.2 6.2 6.2 6.2 6.2
Wind_Speed
4 4 5 4 4 4 4 4 4 3 3 3 3 3 3 3 2 2 3 4 5 5 4 5 6 4 4 3 3 3 3 3 5 5 3 5 3 6 7 12 14 14 15
5 4 4 4 4 4 4 4 3 4 3 4 3 3 3 4 4 4 5 5 6 6 5 5 6 3 5 4 3 4 4 4 3 9 6 5 5 5 6 6 8 12 11
4 5 4 4 4 4 4 4 4 4 4 3 3 4 5 5 6 6 6 6 6 6 6 6 6 5 5 4 4 4 4 4 4 4 5 3 4 5 7 5 5 5 12
5 5 5 5 6 5 4 5 5 4 4 4 5 6 5 6 6 6 6 6 7 6 6 6 6 6 6 6 5 6 5 4 4 4 4 4 4 7 4 6 7 3 5
5 5 6 5 4 4 4 4 4 4 4 4 5 5 6 5 5 5 6 7 7 7 7 6 6 8 13 11 5 5 5 4 4 4 4 6 6 7 7 6 9 11 9
6 6 4 4 4 4 3 3 3 4 4 4 6 6 7 5 13 15 14 6 7 7 7 7 6 11 11 16 16 16 11 5 5 6 4 6 7 5 6 7 8 9 10
5 4 4 4 3 3 2 2 4 4 3 6 6 6 6 6 15 17 18 8 7 7 8 7 6 6 9 6 12 17 16 17 17 7 7 7 9 7 6 10 10 11 11
4 3 3 3 2 1 1 3 3 3 4 5 6 7 6 7 17 20 20 10 7 8 8 7 7 8 8 7 7 7 8 9 9 7 9 11 10 10 9 9 10 10 12
4 3 2 3 2 1 3 4 4 4 4 4 5 7 7 9 18 20 17 7 8 9 8 7 7 8 14 17 8 8 8 8 12 19 21 22 24 25 20 8 8 9 12
3 3 3 4 4 3 3 5 2 3 5 5 7 6 11 11 16 20 17 7 8 7 6 8 17 12 16 17 8 6 7 8 7 9 7 10 14 10 18 10 9 10 10
3 5 6 4 3 3 3 3 4 5 5 6 9 8 8 10 11 19 20 8 6 7 7 7 6 14 16 17 16 6 9 10 12 9 7 4 5 5 5 7 8 8 9
5 5 4 4 4 3 4 4 5 6 6 6 6 8 5 6 13 17 20 19 17 8 8 6 7 16 17 17 15 18 20 16 7 3 5 7 7 7 6 7 7 7 10
4 5 4 5 4 4 4 6 4 5 4 6 6 7 8 7 5 17 21 20 18 9 6 12 20 20 20 17 17 20 18 3 3 6 7 7 8 8 8 8 10 11 10
5 6 5 5 6 5 4 3 3 4 4 5 7 8 9 9 8 7 7 7 14 11 12 9 13 16 18 16 12 6 3 4 5 6 6 7 7 7 8 7 8 7 8
4 4 5 3 4 5 4 4 4 5 4 6 7 7 9 11 10 18 18 11 10 13 16 7 5 4 6 4 3 4 5 4 5 6 7 7 8 8 8 7 7 7 8
3 3 3 3 4 4 4 5 8 12 15 16 17 13 8 17 23 25 25 24 24 25 9 6 5 3 5 6 5 6 4 7 6 6 5 7 8 8 8 7 7 7 8
1 3 3 4 3 3 4 5 7 8 13 13 15 18 20 20 22 23 24 24 19 17 6 7 7 5 6 5 5 5 4 7 6 6 7 7 7 7 10 8 7 7 6
2 6 3 3 3 4 4 5 4 7 10 9 11 16 18 21 24 24 24 15 9 9 6 7 7 6 6 6 3 7 6 6 6 6 7 7 6 7 7 7 7 7 5
3 3 3 4 4 5 4 4 4 9 9 10 9 11 14 21 22 18 16 8 8 8 7 7 7 6 4 7 6 6 6 7 7 6 6 6 7 6 7 7 7 11 7
4 9 7 3 4 4 4 5 5 7 7 8 8 9 9 11 7 8 8 7 7 8 7 7 7 7 6 6 6 6 6 7 6 6 6 6 7 7 7 7 5 3 1
3 4 9 4 4 4 4 5 5 6 7 7 8 9 22 11 9 9 8 8 7 7 8 7 6 7 6 6 6 6 6 6 6 6 6 6 6 6 6 4 2 1 1
3 3 4 4 4 4 5 3 4 6 7 9 9 10 21 7 8 9 9 8 8 8 7 7 7 7 6 6 6 6 6 7 7 6 6 6 6 5 3 0 1 1 2
4 4 4 4 3 9 5 4 4 7 8 8 8 9 8 7 8 9 9 8 8 8 7 7 7 7 6 6 5 6 7 7 7 6 6 6 4 3 1 1 2 2 2
4 4 4 3 3 5 5 4 6 11 10 8 8 8 8 9 9 10 9 8 8 8 7 7 7 8 7 7 7 9 8 9 8 6 6 4 1 2 2 2 2 2 2
2 3 4 4 4 5 6 5 6 6 6 7 7 7 9 8 8 9 9 8 8 7 8 7 6 7 8 10 9 10 9 8 7 5 2 2 3 3 2 2 2 2 2
4 4 5 5 5 6 4 6 6 5 5 6 6 7 7 8 8 8 8 8 7 7 8 6 7 8 8 7 7 10 12 12 9 9 4 3 3 3 3 3 4 2 2
Wind_Direction
182 184 180 184 173 162 170 172 169 150 146 146 162 176 199 223 237 254 264 265 257 270 258 241 258 254 256 248 253 255 240 203 247 286 290 296 268 273 280 287 292 288 290
199 190 195 176 167 171 178 177 158 159 168 182 190 216 246 258 260 255 265 262 254 261 259 259 259 264 272 270 258 257 254 246 231 275 290 303 285 275 260 267 275 278 267
190 189 188 188 179 191 190 181 172 177 199 214 220 239 251 257 262 259 258 273 271 260 259 258 261 264 269 262 256 257 249 261 241 251 282 281 289 297 302 295 283 266 266
195 191 195 196 198 196 194 189 192 199 212 234 243 254 264 274 274 278 274 274 265 258 253 245 248 241 244 253 249 250 250 243 240 240 251 268 280 300 280 299 308 289 292
196 192 207 196 189 190 195 205 212 217 242 257 277 284 283 286 282 285 275 262 257 264 261 252 246 242 250 246 245 244 243 246 249 258 263 286 284 289 295 300 295 303 297
193 199 185 173 181 198 206 221 242 270 282 284 291 289 298 298 295 299 293 261 257 253 257 257 247 261 262 266 266 268 264 244 241 263 259 268 273 276 288 296 295 286 290
170 170 161 164 183 204 228 261 274 285 303 297 294 296 289 286 302 298 293 277 254 248 252 254 262 257 262 246 266 273 276 275 266 259 260 261 276 274 265 278 273 271 271
115 117 127 145 165 180 231 282 307 301 304 302 298 293 289 290 298 299 296 282 266 256 253 248 246 260 257 255 244 253 249 252 253 254 253 258 262 267 262 265 276 281 280
87 110 122 133 136 45 4 335 310 297 308 294 287 297 294 291 295 298 299 281 273 266 258 250 242 248 263 272 262 255 261 261 264 264 259 276 284 284 286 297 285 282 288
68 81 85 74 60 34 337 322 301 299 287 291 291 280 287 293 296 298 299 285 277 278 269 261 269 264 264 270 259 243 261 267 262 271 272 271 273 269 279 277 275 271 273
75 75 69 58 29 7 342 329 311 308 307 309 307 300 285 285 296 305 307 300 277 284 274 275 266 271 276 277 272 247 249 266 278 286 283 276 274 256 262 268 254 251 271
69 65 37 21 7 1 341 315 320 321 317 306 298 300 282 276 292 303 308 306 299 290 281 271 258 274 278 275 272 268 279 292 285 264 276 285 285 275 268 272 258 247 255
41 28 18 1 354 352 342 331 323 316 306 304 303 304 306 302 278 292 304 306 302 289 271 272 280 283 281 280 283 283 283 283 269 281 274 285 280 271 279 277 282 267 255
28 11 3 357 347 345 329 310 301 298 298 301 303 304 304 308 307 301 284 288 291 289 283 285 281 281 281 280 287 309 277 260 262 266 273 283 283 277 278 275 274 268 269
16 357 352 339 329 315 304 286 289 272 274 302 305 301 307 310 307 311 317 314 308 301 303 285 271 263 276 278 268 263 261 249 258 262 272 279 284 281 281 279 271 268 270
3 351 324 319 317 311 307 301 296 305 312 312 311 314 311 309 315 317 319 318 319 322 315 317 310 310 301 292 282 287 260 270 268 268 265 270 276 279 280 286 270 269 269
323 309 308 325 305 309 308 305 319 319 320 323 323 322 319 316 320 320 320 318 329 336 320 314 304 292 293 285 281 286 279 288 270 260 271 275 276 276 290 282 282 277 272
329 329 319 298 293 290 289 299 309 318 322 325 316 321 325 324 321 317 317 340 329 320 307 305 300 296 293 297 293 290 287 285 279 275 274 274 274 275 278 282 279 275 270
328 308 297 288 285 298 303 299 302 317 316 316 318 316 323 318 318 327 335 317 310 310 304 298 298 297 294 293 290 283 283 284 283 282 284 281 279 276 278 276 277 289 279
309 314 314 288 288 295 294 295 293 312 316 315 315 317 322 319 329 328 321 315 306 299 298 303 303 294 290 287 285 285 283 283 281 281 279 278 278 275 277 279 276 267 268
300 297 313 312 299 292 289 287 290 316 308 304 311 315 324 332 327 317 317 314 310 310 303 298 298 295 287 283 284 284 281 283 283 281 281 281 282 285 283 275 277 270 139
280 276 277 274 285 299 293 296 310 311 312 316 317 314 324 328 313 315 312 308 308 305 302 297 297 294 294 293 291 289 285 284 283 279 280 282 285 285 295 280 68 70 72
278 280 274 290 294 311 305 301 307 316 315 311 311 317 317 316 313 310 309 309 308 305 301 297 295 298 297 292 288 283 282 282 280 279 280 284 294 304 337 66 107 84 72
266 266 284 306 290 312 302 285 310 316 316 314 316 310 313 316 310 309 308 306 304 304 301 299 298 295 299 299 294 287 279 276 274 271 274 284 310 11 59 75 82 79 78
280 286 287 282 286 294 301 304 298 302 308 313 307 308 316 311 307 306 307 309 308 310 309 307 301 300 299 299 297 297 306 2 8 17 27 79 88 80 77 73 81 65 61
296 291 292 291 290 289 285 297 292 291 306 305 302 304 306 305 303 306 310 315 317 314 310 310 309 312 318 322 345 20 23 27 29 41 48 52 60 54 61 67 68 69 71